[[{"header":{"parameterUnit":"m.s-1","parameterCategory":1,"la1":30.2991,"la2":30.254,"lo1":-89.0895,"lo2":-89.0444,"dy":0.0017,"dx":0.0017,"nx":28,"ny":28,"refTime":"2024-03-05T03:00:00:Z","depth":0,"parameterNumber":2,"parameterNumberName":"U-component_of_WINDS"},"data":[0,0,0,0,0,0,0,0,0,0,0,0,0,0,0,0,0,0,0,0,0,0,0,0,0,0,0,0,0,0,0,0,0,0,0,0,0,0,0,0,0,0,0,0,0,0,0,0,0,0,0,0,0,0,0,0,0,0,-0.9441,-0.9441,0,-0.9423,-0.9423,-0.9422,-0.9368,-0.9367,-0.9365,-0.9364,-0.9348,-0.9348,-0.9349,0,0,0,0,0,0,0,0,0,0,0,0,0,-0.9432,-0.9433,-0.9442,-0.9441,-0.9441,-0.9423,-0.9423,-0.9422,-0.9368,-0.9366,-0.9365,-0.9364,-0.9347,-0.9348,-0.9349,0,0,0,0,0,0,0,0,0,0,0,0,0,-0.9427,-0.9433,-0.9442,-0.9412,-0.9409,-0.9423,-0.9423,-0.9422,-0.9368,-0.9366,-0.9365,-0.9363,-0.9347,-0.9348,-0.9349,-0.9392,0,0,-0.9352,-0.9353,0,0,0,0,0,0,0,0,-0.9428,-0.9428,-0.9416,-0.9414,-0.941,-0.9396,-0.9413,-0.9412,-0.9369,-0.9384,-0.9364,-0.9362,-0.9365,-0.9365,-0.9365,-0.9391,-0.939,-0.9352,-0.9353,-0.9353,-0.9354,0,0,0,0,0,0,0,-0.9428,-0.9428,-0.9434,-0.9416,-0.9413,-0.94,-0.9397,-0.9413,-0.9385,-0.9382,-0.9378,-0.9377,-0.9363,-0.9364,-0.9364,-0.939,-0.9352,-0.9353,-0.9354,-0.9354,-0.9449,-0.9451,0,0,0,0,0,0,-0.9432,-0.9429,-0.9435,-0.9434,-0.9415,-0.9401,-0.9398,-0.9402,-0.9385,-0.938,-0.9378,-0.9374,-0.9364,-0.9363,-0.9364,-0.9412,-0.9353,-0.9354,-0.9355,-0.9447,-0.945,-0.9452,0,0,0,0,0,0,-0.9432,-0.9433,-0.9435,-0.943,-0.9429,-0.9404,-0.9408,-0.9403,-0.9404,-0.9381,-0.9376,-0.9384,-0.9362,-0.9362,-0.9385,-0.9411,-0.9355,-0.9356,-0.9445,-0.9448,-0.9451,-0.951,0,0,0,0,0,0,-0.9432,-0.9434,-0.9449,-0.9431,-0.943,-0.9457,-0.941,-0.9404,-0.9405,-0.94,-0.9386,-0.9382,-0.9361,-0.9384,-0.9386,-0.9411,-0.9357,-0.9443,-0.9447,-0.945,-0.9505,-0.9514,-0.9522,0,0,0,0,0,-0.9432,-0.9467,-0.945,-0.9451,-0.9448,-0.9458,-0.9458,-0.9432,-0.9408,-0.9423,-0.9409,-0.9382,-0.9408,-0.9386,-0.9388,-0.9415,-0.9441,-0.9445,-0.945,-0.9502,-0.9512,-0.9522,0,0,0,0,0,0,-0.949,-0.9464,-0.9445,-0.9475,-0.9469,-0.9449,-0.9468,-0.9444,-0.9446,-0.9441,-0.941,-0.9407,-0.9434,-0.9426,-0.9403,-0.9455,-0.942,-0.9425,-0.9459,-0.9469,-0.9477,-0.9478,-0.9357,0,0,0,0,0,-0.9506,-0.9515,-0.9492,-0.9521,-0.9519,-0.9494,-0.9497,-0.9478,-0.9471,-0.9468,-0.9456,-0.9451,-0.9457,-0.9463,-0.9468,-0.9504,-0.95,-0.9523,-0.9531,-0.9538,-0.9543,-0.9561,-0.9571,-0.9466,-0.9466,-0.9466,0,0,-0.954,-0.9527,-0.9535,-0.9532,-0.9525,-0.9536,-0.9492,-0.9506,-0.9514,-0.9471,-0.9491,-0.9482,-0.9474,-0.9504,-0.9516,-0.9498,-0.9571,-0.9543,-0.9549,-0.955,-0.9567,-0.9577,-0.9586,-0.9469,-0.9468,-0.9468,0,0,-0.9606,-0.9597,-0.962,-0.9614,-0.9604,-0.9587,-0.9592,-0.9576,-0.9567,-0.9587,-0.9555,-0.9565,-0.9577,-0.9573,-0.9572,-0.9637,-0.9613,-0.964,-0.9683,-0.9702,-0.971,-0.9717,-0.9741,-0.975,-0.9644,-0.9645,-0.9645,0,-0.965,-0.9664,-0.9635,-0.965,-0.965,-0.9611,-0.9634,-0.963,-0.9622,-0.9624,-0.9603,-0.9618,-0.961,-0.9638,-0.9654,-0.9655,-0.9661,-0.9641,-0.9711,-0.9718,-0.9724,-0.9746,-0.9755,-0.9648,-0.9648,-0.9647,-0.9647,0,-0.9718,-0.9729,-0.9748,-0.9741,-0.9743,-0.9763,-0.9737,-0.9743,-0.9724,-0.9709,-0.973,-0.9719,-0.9721,-0.9726,-0.9708,-0.9752,-0.9741,-0.9716,-0.9681,-0.9738,-0.9758,-0.9767,-0.9653,-0.9652,-0.9651,-0.965,0,0,-0.9821,-0.9797,-0.9805,-0.9801,-0.9787,-0.9795,-0.9813,-0.9814,-0.982,-0.9816,-0.983,-0.9841,-0.9818,-0.9818,-0.9798,-0.9815,-0.9867,-0.9788,-0.9787,-0.9803,-0.9916,-0.9935,-0.9945,-0.9851,-0.9852,-0.9853,-0.9916,0,-0.9885,-0.9913,-0.9887,-0.992,-0.993,-0.9892,-0.9908,-0.9901,-0.9888,-0.9895,-0.9881,-0.9889,-0.9858,-0.9857,-0.9872,-0.9858,-0.9889,-0.9853,-0.9865,-0.9865,-0.9868,-0.9955,-0.9975,-1.0036,-0.9924,-0.9926,-0.9926,0,-0.9962,-0.9961,-0.9995,-0.9979,-0.9982,-0.9996,-0.9995,-1.0002,-0.9994,-0.9983,-0.9982,-0.9958,-0.9975,-0.994,-0.9963,-0.9939,-0.9942,-0.9936,-0.9938,-0.9938,-0.99,-0.9959,-1.0054,-1.0063,-0.9939,-0.9938,-0.9937,0,-1.0035,-1.0042,-1.0063,-1.0061,-1.0042,-1.0053,-1.0046,-1.0035,-1.0038,-1.0037,-1.0038,-1.004,-1.0041,-1.0043,-1.0021,-0.9997,-1.0047,-1.001,-1.0039,-1.004,-1.0052,-1.0052,-1.015,-1.0054,-1.0053,-1.0053,-1.0053,0,-1.0109,-1.0131,-1.0095,-1.0108,-1.0133,-1.0103,-1.0128,-1.0117,-1.0108,-1.0119,-1.0087,-1.0098,-1.0067,-1.0075,-1.0057,-1.008,-1.008,-1.0073,-1.0068,-1.0076,-1.0077,-1.0078,-1.0073,-1.0056,-1.0055,-1.0055,-1.0054,0,-1.0194,-1.017,-1.0191,-1.0171,-1.0166,-1.0185,-1.0169,-1.018,-1.0165,-1.0179,-1.0181,-1.0157,-1.0165,-1.0142,-1.0147,-1.0135,-1.0167,-1.0155,-1.017,-1.0166,-1.0197,-1.0195,-1.03,-1.0312,-1.0208,-1.0209,-1.021,0,-1.0242,-1.0259,-1.024,-1.0245,-1.0239,-1.0247,-1.0249,-1.022,-1.0223,-1.0215,-1.0228,-1.0233,-1.0236,-1.025,-1.0234,-1.0237,-1.0225,-1.0262,-1.0226,-1.0233,-1.0226,-1.0226,-1.0228,-1.027,-1.0271,-1.0272,-1.0273,0,-1.0332,-1.0319,-1.0323,-1.0322,-1.0325,-1.0324,-1.032,-1.0326,-1.0295,-1.0301,-1.0308,-1.031,-1.0314,-1.032,-1.0319,-1.0313,-1.0288,-1.0284,-1.0291,-1.03,-1.0308,-1.0304,-1.0191,-1.0282,-1.0281,-1.028,-1.028,-1.028,-1.04,-1.0413,-1.0402,-1.0407,-1.0401,-1.0398,-1.0408,-1.0394,-1.0399,-1.0399,-1.0382,-1.0393,-1.0384,-1.0381,-1.0377,-1.0386,-1.0369,-1.0379,-1.0382,-1.0385,-1.039,-1.0306,-1.0385,-1.0385,-1.0385,-1.0385,-1.0384,0,-1.0488,-1.0479,-1.0484,-1.0479,-1.0484,-1.0459,-1.0453,-1.0459,-1.0468,-1.0462,-1.0465,-1.0473,-1.0478,-1.0462,-1.0465,-1.0475,-1.0464,-1.0477,-1.0476,-1.0475,-1.0405,-1.0399,-1.0486,-1.0486,-1.0486,-1.0486,-1.0486,-1.0486,-1.0535,-1.0555,-1.0541,-1.0558,-1.0549,-1.0558,-1.0558,-1.0555,-1.055,-1.056,-1.0564,-1.0553,-1.0543,-1.0545,-1.0549,-1.0544,-1.0547,-1.0564,-1.0555,-1.049,-1.048,-1.0471,-1.0465,-1.0565,-1.0565,-1.0625,-1.0625,-1.0626]},{"header":{"parameterUnit":"m.s-1","parameterCategory":1,"la1":30.2991,"la2":30.254,"lo1":-89.0895,"lo2":-89.0444,"dy":0.0017,"dx":0.0017,"nx":28,"ny":28,"refTime":"2024-03-05T03:00:00:Z","depth":0,"parameterNumber":3,"parameterNumberName":"V-component_of_WINDS"},"data":[0,0,0,0,0,0,0,0,0,0,0,0,0,0,0,0,0,0,0,0,0,0,0,0,0,0,0,0,0,0,0,0,0,0,0,0,0,0,0,0,0,0,0,0,0,0,0,0,0,0,0,0,0,0,0,0,0,0,-0.7997,-0.7996,0,-0.7935,-0.7934,-0.7934,-0.789,-0.7889,-0.7889,-0.7889,-0.7822,-0.7821,-0.7819,0,0,0,0,0,0,0,0,0,0,0,0,0,-0.8074,-0.8073,-0.7997,-0.7996,-0.7996,-0.7935,-0.7934,-0.7934,-0.789,-0.7889,-0.7889,-0.7889,-0.7823,-0.7821,-0.7819,0,0,0,0,0,0,0,0,0,0,0,0,0,-0.8029,-0.8073,-0.7997,-0.7967,-0.7963,-0.7935,-0.7934,-0.7933,-0.789,-0.7889,-0.7889,-0.7888,-0.7823,-0.7821,-0.7819,-0.7816,0,0,-0.7812,-0.7811,0,0,0,0,0,0,0,0,-0.8032,-0.8026,-0.7972,-0.7969,-0.7965,-0.792,-0.7937,-0.7894,-0.789,-0.7918,-0.7889,-0.7888,-0.7855,-0.785,-0.7839,-0.7813,-0.781,-0.7812,-0.7811,-0.781,-0.7809,0,0,0,0,0,0,0,-0.8035,-0.8029,-0.7972,-0.7971,-0.7967,-0.7955,-0.7948,-0.7929,-0.789,-0.7915,-0.7912,-0.7905,-0.7853,-0.7842,-0.7838,-0.7809,-0.7812,-0.781,-0.7809,-0.7808,-0.7776,-0.7777,0,0,0,0,0,0,-0.8043,-0.8032,-0.7974,-0.7971,-0.7998,-0.7954,-0.7946,-0.7935,-0.789,-0.7883,-0.7906,-0.7903,-0.7846,-0.784,-0.7835,-0.7828,-0.781,-0.7808,-0.7807,-0.7776,-0.7776,-0.7777,0,0,0,0,0,0,-0.8045,-0.8039,-0.7977,-0.8,-0.7992,-0.7953,-0.7941,-0.7934,-0.7923,-0.7883,-0.7875,-0.7902,-0.7845,-0.7838,-0.7821,-0.7825,-0.7807,-0.7805,-0.7775,-0.7776,-0.7777,-0.7815,0,0,0,0,0,0,-0.8048,-0.804,-0.8039,-0.8001,-0.7991,-0.7965,-0.7941,-0.7933,-0.7919,-0.7916,-0.7877,-0.787,-0.7844,-0.7825,-0.7819,-0.7822,-0.7803,-0.7775,-0.7776,-0.7776,-0.7813,-0.7817,-0.782,0,0,0,0,0,-0.8051,-0.8051,-0.8039,-0.8032,-0.7989,-0.7965,-0.7959,-0.793,-0.792,-0.7918,-0.7893,-0.7871,-0.7826,-0.7823,-0.7817,-0.7819,-0.7774,-0.7775,-0.7776,-0.7811,-0.7816,-0.782,0,0,0,0,0,0,-0.809,-0.8046,-0.8032,-0.802,-0.7997,-0.7958,-0.7955,-0.7936,-0.7915,-0.7912,-0.7876,-0.7867,-0.7854,-0.7835,-0.7832,-0.7813,-0.7797,-0.7797,-0.7826,-0.783,-0.7834,-0.7839,-0.7801,0,0,0,0,0,-0.8098,-0.8083,-0.8045,-0.8039,-0.8028,-0.7994,-0.7983,-0.7962,-0.7936,-0.7926,-0.7899,-0.7874,-0.7853,-0.7841,-0.782,-0.781,-0.7801,-0.7808,-0.7812,-0.7815,-0.7815,-0.7808,-0.781,-0.778,-0.778,-0.778,0,0,-0.8113,-0.8087,-0.808,-0.8046,-0.8026,-0.8011,-0.7986,-0.7971,-0.7959,-0.7923,-0.7906,-0.7885,-0.7854,-0.7841,-0.7834,-0.7824,-0.7821,-0.7816,-0.7819,-0.7817,-0.7809,-0.7812,-0.7815,-0.7781,-0.7781,-0.7781,0,0,-0.8132,-0.8112,-0.8104,-0.8085,-0.8055,-0.8032,-0.803,-0.7994,-0.7979,-0.7961,-0.7934,-0.7919,-0.7885,-0.7864,-0.7849,-0.7862,-0.7841,-0.7856,-0.7874,-0.7867,-0.787,-0.7872,-0.7875,-0.7877,-0.7856,-0.7856,-0.7857,0,-0.8155,-0.8132,-0.8103,-0.809,-0.8075,-0.8043,-0.8035,-0.8017,-0.7981,-0.7971,-0.7962,-0.7919,-0.7896,-0.7877,-0.788,-0.7869,-0.7865,-0.786,-0.7872,-0.7874,-0.7875,-0.7878,-0.788,-0.7858,-0.7858,-0.7858,-0.7858,0,-0.8161,-0.8146,-0.8143,-0.8111,-0.8096,-0.8085,-0.8053,-0.8042,-0.8023,-0.8001,-0.7982,-0.7954,-0.7927,-0.7921,-0.7902,-0.7899,-0.7894,-0.7879,-0.7862,-0.788,-0.7883,-0.7884,-0.7861,-0.7861,-0.786,-0.7859,0,0,-0.8203,-0.8155,-0.8154,-0.8139,-0.8104,-0.8091,-0.8078,-0.8053,-0.8044,-0.802,-0.8008,-0.7981,-0.7966,-0.7949,-0.7928,-0.7922,-0.7933,-0.7907,-0.7906,-0.7912,-0.7927,-0.7939,-0.7941,-0.7919,-0.792,-0.792,-0.793,0,-0.8217,-0.8194,-0.8167,-0.8153,-0.8138,-0.8108,-0.8097,-0.8073,-0.8053,-0.8036,-0.8012,-0.7993,-0.7976,-0.7966,-0.7959,-0.7933,-0.7935,-0.7932,-0.7907,-0.7906,-0.7915,-0.7942,-0.7954,-0.7965,-0.7931,-0.7931,-0.7931,0,-0.823,-0.8209,-0.8194,-0.816,-0.8153,-0.8144,-0.8118,-0.8103,-0.8076,-0.8061,-0.8042,-0.8019,-0.8004,-0.7989,-0.7967,-0.7965,-0.7953,-0.7939,-0.7939,-0.7935,-0.7919,-0.7938,-0.7968,-0.7969,-0.7932,-0.7932,-0.7932,0,-0.8262,-0.823,-0.8217,-0.8205,-0.8165,-0.8159,-0.8142,-0.8114,-0.8101,-0.8078,-0.8069,-0.8044,-0.803,-0.8012,-0.7982,-0.7975,-0.7963,-0.7946,-0.7949,-0.795,-0.7947,-0.7948,-0.7975,-0.7941,-0.7941,-0.7941,-0.7941,0,-0.828,-0.8272,-0.8231,-0.8223,-0.8212,-0.8181,-0.8171,-0.8151,-0.8127,-0.8113,-0.8085,-0.8073,-0.8035,-0.8018,-0.7995,-0.7979,-0.7974,-0.796,-0.7954,-0.7963,-0.7964,-0.7954,-0.7952,-0.7941,-0.7941,-0.7941,-0.7941,0,-0.8314,-0.8286,-0.8269,-0.8233,-0.8224,-0.8218,-0.8186,-0.8177,-0.8155,-0.8138,-0.8132,-0.8097,-0.8075,-0.8045,-0.8013,-0.7998,-0.7985,-0.7976,-0.7995,-0.7991,-0.7996,-0.7996,-0.8017,-0.8018,-0.7984,-0.7984,-0.7985,0,-0.8327,-0.832,-0.8283,-0.8273,-0.8257,-0.8241,-0.8227,-0.8196,-0.8183,-0.8151,-0.8145,-0.8122,-0.8101,-0.8068,-0.8039,-0.8015,-0.8004,-0.8013,-0.8,-0.8009,-0.8003,-0.8004,-0.8003,-0.8016,-0.8017,-0.8017,-0.8017,0,-0.8353,-0.8339,-0.8321,-0.8299,-0.8284,-0.8264,-0.8243,-0.8235,-0.8199,-0.8186,-0.8164,-0.8149,-0.8117,-0.8094,-0.8066,-0.8047,-0.8026,-0.8022,-0.8021,-0.8029,-0.8041,-0.8034,-0.8003,-0.8021,-0.8021,-0.8021,-0.802,-0.802,-0.8376,-0.8368,-0.8342,-0.8322,-0.8304,-0.8284,-0.8274,-0.8251,-0.8233,-0.8205,-0.8188,-0.8167,-0.8139,-0.81,-0.8082,-0.8064,-0.8055,-0.8055,-0.8054,-0.8054,-0.8057,-0.8044,-0.8059,-0.8059,-0.8059,-0.8059,-0.8059,0,-0.84,-0.8381,-0.8364,-0.8336,-0.8321,-0.8304,-0.8279,-0.8267,-0.825,-0.8226,-0.8207,-0.8182,-0.816,-0.8129,-0.8104,-0.8096,-0.8086,-0.809,-0.809,-0.8086,-0.8067,-0.807,-0.8099,-0.8099,-0.8099,-0.8099,-0.8099,-0.8099,-0.8411,-0.8397,-0.8381,-0.8357,-0.8338,-0.8318,-0.8306,-0.8288,-0.8269,-0.8243,-0.8224,-0.8205,-0.8178,-0.8151,-0.8129,-0.8121,-0.8113,-0.812,-0.8109,-0.8091,-0.8087,-0.8084,-0.8086,-0.8119,-0.8119,-0.813,-0.813,-0.813]}]]